Track COSMOS 1433 now! 10-day predictions COSMOS 1433 is classified as:
1 13765U 83002E 21108.56004064 -.00000005 00000-0 70346-4 0 9992 2 13765 74.0230 249.2079 0014193 289.2765 200.1775 12.51911075748126